Left ArrowRight Arrow

Hourly Observations for November 11, 2020

Temp ( °F °C ) Dew Point ( °F °C ) Humidity (%) Winds ( mph kmh ) Pressure ( in mb ) Visibility ( mi km ) Precip ( " mm )
12:51 am 00:51 Clear 60 15.6 58 14.4 93 93 SW 5 7 30.09 1019 10 16 0.00 0.00
1:51 am 01:51 Clear with Fog 58 14.4 56 13.3 93 93 Calm 30.07 1018 10 16 0.00 0.00
2:51 am 02:51 Clear with Fog 57 13.9 54 12.2 90 90 Calm 30.06 1018 10 16 0.00 0.00
3:51 am 03:51 Cloudy with Fog 56 13.3 55 12.8 97 97 Calm 30.06 1018 8 13 0.00 0.00
4:51 am 04:51 Cloudy with Fog 59 15 58 14.4 96 96 S 6 9 30.06 1018 7 11 0.00 0.00
5:51 am 05:51 Cloudy with Fog 62 16.7 60 15.6 93 93 S 5 7 30.05 1018 5 8 0.00 0.00
6:01 am 06:01 Cloudy with Mist and Fog 62 16.7 60 15.6 93 93 S 6 9 30.05 1018 5 8 0.00 0.00
6:51 am 06:51 Cloudy with Mist and Fog 62 16.7 61 16.1 96 96 SSW 3 6 30.05 1018 3 5 0.00 0.00
7:51 am 07:51 Cloudy with Mist and Fog 64 17.8 63 17.2 96 96 SSW 9 15 30.05 1018 3 5 0.00 0.00
8:51 am 08:51 Cloudy with Mist and Fog 65 18.3 64 17.8 97 97 SSW 6 9 30.05 1018 7 11 0.00 0.00
9:51 am 09:51 Cloudy with Drizzle 67 19.4 65 18.3 93 93 SSW 13 20 30.04 1017 5 8 0.00 0.00
10:17 am 10:17 Cloudy with Drizzle 68 20 65 18.3 90 90 SSW 12 19 30.04 1017 6 10 0.00 0.00
10:51 am 10:51 Cloudy with Mist and Fog 69 20.6 65 18.3 87 87 SSW 10 17 30.03 1017 7 11 0.00 0.00
11:51 am 11:51 Cloudy 70 21.1 66 18.9 87 87 SSW 10 17 30.01 1016 10 16 0.00 0.00
12:51 pm 12:51 Cloudy with Drizzle 70 21.1 66 18.9 87 87 SSW 9 15 29.98 1015 4 6 0.00 0.00
1:51 pm 13:51 Cloudy with Drizzle 70 21.1 67 19.4 90 90 S 5 7 29.96 1014 10 16 0.00 0.00
2:08 pm 14:08 Cloudy with Drizzle 70 21.1 67 19.4 90 90 SE 5 7 29.95 1014 10 16 0.00 0.00
2:51 pm 14:51 Cloudy with Light Rain 69 20.6 66 18.9 90 90 SSE 6 9 29.93 1014 6 10 0.03 0.76
3:10 pm 15:10 Cloudy with Heavy Rain 68 20 65 18.3 90 90 SE 7 11 29.94 1014 2 3 0.03 0.76
3:16 pm 15:16 Cloudy with Heavy Rain 67 19.4 65 18.3 93 93 SSE 7 11 29.94 1014 1 1 0.09 2.29
3:26 pm 15:26 Cloudy with Heavy Rain 68 20 65 18.3 90 90 SSW 6 9 29.94 1014 2 3 0.20 5.08
3:48 pm 15:48 Cloudy with Rain 66 19 64 18 94 94 SSW 15 24 29.95 1014 2 3 0.38 9.65
3:51 pm 15:51 Cloudy with Rain 67 19.4 65 18.3 93 93 SSW 13 20 29.94 1014 2 3 0.39 9.91
3:53 pm 15:53 Cloudy with Rain 67 19.4 65 18.3 93 93 SW 10 17 29.95 1014 2 3 0.01 0.25
3:58 pm 15:58 Cloudy with Rain 67 19.4 65 18.3 93 93 SW 14 22 29.95 1014 3 5 0.02 0.51
4:38 pm 16:38 Cloudy with Light Rain 68 20 64 18 88 88 SSW 13 20 29.94 1014 9 14 0.00 0.00
4:51 pm 16:51 Cloudy with Light Rain 67 19.4 64 17.8 91 91 SSW 13 20 29.94 1014 8 13 0.05 1.27
5:51 pm 17:51 Cloudy with Drizzle 66 18.9 64 17.8 93 93 SSW 7 11 29.93 1014 5 8 0.02 0.51
6:26 pm 18:26 Mostly Cloudy with Drizzle 66 18.9 64 17.8 93 93 S 5 7 29.93 1014 4 6 0.05 1.27
6:51 pm 18:51 Cloudy with Drizzle 65 18.3 64 17.8 97 97 SW 6 9 29.93 1013 3 5 0.11 2.79
7:11 pm 19:11 Cloudy with Light Rain 65 18.3 64 17.8 97 97 Calm 29.93 1014 3 5 0.13 3.30
7:19 pm 19:19 Mostly Cloudy with Light Rain 65 18.3 64 17.8 97 97 S 3 6 29.93 1014 3 5 0.18 4.57
7:51 pm 19:51 Mostly Cloudy with Light Rain 66 18.9 64 17.8 93 93 SSW 8 13 29.93 1014 3 5 0.37 9.40
8:51 pm 20:51 Cloudy with Light Rain 65 18.3 64 17.8 97 97 SSE 5 7 29.90 1013 7 11 0.15 3.81
9:51 pm 21:51 Cloudy 65 18.3 64 17.8 97 97 SSW 3 6 29.88 1012 7 11 0.01 0.25
10:51 pm 22:51 Cloudy with Light Rain 65 18.3 64 17.8 97 97 S 3 6 29.87 1012 3 5 0.00 0.00
11:51 pm 23:51 Cloudy with Mist and Fog 65 18.3 64 17.8 97 97 SW 6 9 29.88 1012 3 5 0.01 0.25

Powered by Vaisala Xweather